Погода в Чумпхоне

Таиланд     10°29′20″N   99°11′30″E
темп.,
°C
ветер,
м/с
пор.,
м/с
влажн.,
%
обл.,
%
осадки,
мм/ч
давл.,
гПа
погр.,
м
8 марта, пн
пн801:00+26ююв13810 0.0 1013442
04:00+25юв138073 0.0 1012441
07:00+26вюв147777 0.0 1012426
10:00+29вюв566673 0.0 10151000
13:00+29вюв566666 0.1 10121022
16:00+29вюв456746 0.1 10111075
19:00+27вюв467635 0.1 1011615
22:00+27вюв45780 0.0 1014514
9 марта, вт
вт901:00+26юв24770 0.0 1013480
04:00+25ююв24793 0.0 1011483
07:00+26юв24783 0.0 1013514
10:00+28юв457046 0.0 10151001
13:00+29юв456660 0.1 1012938
16:00+29вюв45666 0.0 10101018
19:00+27юв45787 0.0 1012567
22:00+27вюв348018 0.0 1014483
10 марта, ср
ср1001:00+27юв237424 0.0 1013499
04:00+26ююз127840 0.2 1011395
07:00+25юз128121 0.3 1013303
10:00+29юв44630 0.0 10141029
13:00+30вюв446330 0.0 1012872
16:00+29юв45630 0.0 1009763
19:00+27юв46760 0.0 1011477
22:00+27юв34811 0.0 1013478
11 марта, чт
чт1101:00+26юв24801 0.0 1012424
04:00+26юв24810 0.0 1011463
07:00+26юв34803 0.0 1012486
10:00+29юв566911 0.1 10141014
13:00+30вюв56666 0.2 10121035
16:00+29вюв55682 0.0 1010934
19:00+27юв36781 0.0 1011570
22:00+27вюв45811 0.0 1013476
12 марта, пт
пт1201:00+26юв23811 0.0 1012387
04:00+26ю13800 0.1 1011398
07:00+26вюв13790 0.1 1013546
10:00+30вюв446680 0.0 10141039
13:00+30вюв556753 0.1 1012892
16:00+29юв55689 0.0 1010902
19:00+27юв467710 0.0 1011642
22:00+27юв348014 0.0 1013495